Regional Weather Roundup
Issued by NWS

Home | Current Version | Previous Version | Graphics & Text | Print | Product List | Glossary On
Versions: 1 2 3 4 5 6 7 8 9 10 11 12 13 14 15 16 17 18 19 20 21 22 23 24 25 26 27 28 29 30 31 32 33 34 35 36 37 38 39 40 41 42 43 44 45 46 47 48 49 50
000
ASUS43 KDTX 231810
RWRMI
MICHIGAN HOURLY REGIONAL WEATHER ROUNDUP
NATIONAL WEATHER SERVICE DETROIT/PONTIAC MI
ISSUED BY NATIONAL WEATHER SERVICE GRAND RAPIDS MI
100 PM EST MON JAN 23 2017

NOTE: "FAIR" INDICATES FEW OR NO CLOUDS BELOW 12,000 FEET WITH NO
SIGNIFICANT WEATHER AND/OR OBSTRUCTION TO VISIBILITY.

MIZ047>049-052>055-059>063-066>070-074>076-081>083-231900-
SOUTHEAST LOWER MICHIGAN

CITY           SKY/WX    TMP DP  RH WIND       PRES   REMARKS
ADRIAN         LGT RAIN  43  42  97 NE7       29.66S
6HR MIN TEMP:  41; 6HR MAX TEMP:  43; 6HR PCP:  0.07;

ALMA           CLOUDY    39  39  99 NE3       29.71F FOG
ANN ARBOR      CLOUDY    43  42  97 N7        29.65F
BAD AXE        CLOUDY    38  38 100 NE3       29.71F FOG
DETROIT CITY   CLOUDY    42  41  96 NE6       29.67F FOG
6HR MIN TEMP:  40; 6HR MAX TEMP:  42; 6HR PCP:  0.05;

DETROIT        CLOUDY    43  41  93 NE7       29.66F FOG
6HR MIN TEMP:  42; 6HR MAX TEMP:  44; 6HR PCP:  0.08;

FLINT          LGT RAIN  40  39  97 NE5       29.69F FOG
6HR MIN TEMP:  39; 6HR MAX TEMP:  41; 6HR PCP:  0.01;

GROSSE ILE     CLOUDY    42  41  97 NE7       29.65S FOG
6HR MIN TEMP:  39; 6HR MAX TEMP:  42; 6HR PCP:  0.06;

HILLSDALE      LGT RAIN  41  41 100 N5        29.64F
HOWELL         DRIZZLE   40  39  97 N3        29.67F

CITY           SKY/WX    TMP DP  RH WIND       PRES   REMARKS
JACKSON        LGT RAIN  41  40  96 N5        29.66F FOG
6HR MIN TEMP:  40; 6HR MAX TEMP:  41; 6HR PCP: TRACE;

LANSING        FOG       39  37  92 N5        29.70F VSB 3/4
6HR MIN TEMP:  38; 6HR MAX TEMP:  39;

MASON          CLOUDY    40  40 100 CALM      29.68F FOG
MONROE         CLOUDY    43  42  98 NE7       29.64F
MT. CLEMENS    CLOUDY    41  41 100 N8        29.65F FOG
6HR MIN TEMP:  38; 6HR MAX TEMP:  41; 6HR PCP:  0.06;

PONTIAC        LGT RAIN  41  39  93 N5        29.65F FOG
6HR MIN TEMP:  38; 6HR MAX TEMP:  41; 6HR PCP:  0.04;

PORT HOPE        N/A     37  36  96 CALM      29.70F
6HR MIN TEMP:  36; 6HR MAX TEMP:  37; 6HR PCP:  0.05;

PORT HURON     CLOUDY    39  39 100 NE3       29.68F FOG
TRI CITIES     FOG       37  37 100 N6        29.71F VSB 1/8 WCI  32
6HR MIN TEMP:  36; 6HR MAX TEMP:  37;

YPSILANTI      CLOUDY    44  42  93 N9        29.66F
6HR MIN TEMP:  42; 6HR MAX TEMP:  44; 6HR PCP:  0.11;

$$
MIZ043>046-050>051-056>058-064>065-071>073-077>080-231900-
SOUTHWEST LOWER MICHIGAN

CITY           SKY/WX    TMP DP  RH WIND       PRES   REMARKS
BATTLE CREEK   CLOUDY    41  40  96 N7        29.68F FOG
6HR MIN TEMP:  40; 6HR MAX TEMP:  41;

BENTON HARBOR  CLOUDY    40  37  89 VRB6      29.72F
6HR MIN TEMP:  38; 6HR MAX TEMP:  40;

BIG RAPIDS     CLOUDY    39  38  98 N6        29.70F FOG     WCI  35
6HR MIN TEMP:  37; 6HR MAX TEMP:  39;

COLDWATER      CLOUDY    41  41 100 N7        29.67F FOG
6HR MIN TEMP:  40; 6HR MAX TEMP:  41;

HOLLAND        CLOUDY    42  37  82 NW6       29.72F
6HR MIN TEMP:  36; 6HR MAX TEMP:  42;

GRAND RAPIDS   CLOUDY    41  39  93 N7        29.69F FOG
6HR MIN TEMP:  40; 6HR MAX TEMP:  42; 6HR PCP:  0.01;

KALAMAZOO      CLOUDY    42  39  89 N9        29.70S FOG
6HR MIN TEMP:  41; 6HR MAX TEMP:  42;

MARSHALL       CLOUDY    40  39  97 N3        29.68F FOG
6HR MIN TEMP:  39; 6HR MAX TEMP:  40;

MOUNT PLEASANT CLOUDY    39  38  99 N5        29.71S FOG
6HR MIN TEMP:  38; 6HR MAX TEMP:  39;

MUSKEGON       CLOUDY    44  37  76 N7        29.72F
6HR MIN TEMP:  36; 6HR MAX TEMP:  44;

STURGIS        CLOUDY    41  41 100 N7        29.67S FOG
6HR MIN TEMP:  40; 6HR MAX TEMP:  41;

$$
MIZ016>042-231900-
NORTHERN LOWER MICHIGAN

CITY           SKY/WX    TMP DP  RH WIND       PRES   REMARKS
ALPENA         CLOUDY    37  35  92 E8        29.75F FOG     WCI  31
6HR MIN TEMP:  37; 6HR MAX TEMP:  37;

BEAVER ISLAND  CLOUDY    36  36 100 E7        29.75S WCI  31
6HR MIN TEMP:  35; 6HR MAX TEMP:  37;

BELLAIRE       CLOUDY    38  37  99 CALM      29.74F FOG
6HR MIN TEMP:  33; 6HR MAX TEMP:  38;

CADILLAC       CLOUDY    38  37  97 CALM      29.70F FOG
CHARLEVOIX     CLOUDY    37  37 100 E3        29.77S FOG
6HR MIN TEMP:  35; 6HR MAX TEMP:  37;

GAYLORD        CLOUDY    37  34  89 E5        29.71F FOG     WCI  33
6HR MIN TEMP:  37; 6HR MAX TEMP:  38;

HOUGHTON LAKE  CLOUDY    38  37  97 CALM      29.72S
6HR MIN TEMP:  36; 6HR MAX TEMP:  38;

MANISTEE       CLOUDY    39  39 100 NW3       29.73F FOG
OSCODA         MIX PCPN  38  38  97 NE3       29.72F
6HR MIN TEMP:  37; 6HR MAX TEMP:  38;

PELLSTON       FOG       36  34  92 E7        29.75F VSB 1/2 WCI  30
6HR MIN TEMP:  35; 6HR MAX TEMP:  36;

TRAVERSE CITY  CLOUDY    40  39  97 CALM      29.73S FOG
6HR MIN TEMP:  36; 6HR MAX TEMP:  40;

LUDINGTON      CLOUDY    41  41 100 NW3       29.73F
6HR MIN TEMP:  37; 6HR MAX TEMP:  41;

$$
MIZ007>008-015-231900-
EASTERN UPPER MICHIGAN

CITY           SKY/WX    TMP DP  RH WIND       PRES   REMARKS
KINROSS        CLOUDY    34  33  96 E12       29.78F FOG     WCI  25
6HR MIN TEMP:  34; 6HR MAX TEMP:  34; 6HR PCP: TRACE;

MACKINAC ISLAN FOG       34  34 100 E8        29.76F VSB 1/4 WCI  27
6HR MIN TEMP:  34; 6HR MAX TEMP:  35;

NEWBERRY       CLOUDY    34  33  96 E6        29.76F FOG     WCI  29
6HR MIN TEMP:  33; 6HR MAX TEMP:  34;

S. S. MARIE    CLOUDY    36  35  96 E8        29.78S FOG     WCI  30
6HR MIN TEMP:  36; 6HR MAX TEMP:  37;

$$
MIZ004>006-011>014-085-231900-
CENTRAL UPPER MICHIGAN

CITY           SKY/WX    TMP DP  RH WIND       PRES   REMARKS
MANISTIQUE     FOG       35  34  97 E7        29.75F VSB 3/4 WCI  29
6HR MIN TEMP:  34; 6HR MAX TEMP:  35;

ESCANABA       CLOUDY    38  37  97 NE5       29.76F WCI  34
6HR MIN TEMP:  35; 6HR MAX TEMP:  38;

SAWYER-GWINN   CLOUDY    34  34 100 N5        29.76F WCI  30
$$
MIZ001>003-009>011-084-231900-
WESTERN UPPER MICHIGAN

CITY           SKY/WX    TMP DP  RH WIND       PRES   REMARKS
IRON MOUNTAIN  CLOUDY    36  32  85 N6        29.74F FOG     WCI  31
6HR MIN TEMP:  34; 6HR MAX TEMP:  36;

HOUGHTON       FOG       35  34  96 CALM      29.75F VSB<1/4
6HR MIN TEMP:  34; 6HR MAX TEMP:  36;

COPPER HARBOR    N/A     38  35  89 VRB3      29.76F
6HR MIN TEMP:  35; 6HR MAX TEMP:  38;

IRONWOOD       FOG       36  35  96 CALM      29.77F VSB 1/4
6HR MIN TEMP:  34; 6HR MAX TEMP:  36;

$$

ABBREVIATIONS USED IN REMARKS
   TC - TEMPERATURE IN CELSIUS
  WCI - WIND CHILL INDEX
   HX - HEAT INDEX
  VSB - VISIBILITY




USA.gov is the U.S. government's official web portal to all federal, state and local government web resources and services.